Theta_e
310 311 312 312 311 311 311 311 311 310 310 313 313 315 315 315 315 316 316 317 317 318 328 350 352 352 351 349 342 338 336 335 335 333 329 331 335 333 331 330 330 329 330 325
311 313 312 312 311 310 311 312 312 311 310 310 311 312 314 315 316 316 317 317 318 318 335 348 350 351 351 347 342 339 339 338 336 331 331 333 333 330 331 332 334 337 339 334
314 313 312 311 312 312 312 312 312 311 311 310 310 310 311 313 314 315 317 317 318 318 333 347 349 350 351 349 347 346 345 342 336 332 332 332 331 332 333 336 338 342 342 342
313 313 313 313 313 312 314 312 311 311 311 312 311 310 310 312 313 316 317 318 317 318 329 344 347 348 350 350 349 348 347 344 337 333 332 332 335 337 336 341 343 343 343 342
314 314 314 315 315 314 315 312 312 312 312 311 310 312 312 313 316 316 318 318 318 318 325 341 346 348 349 350 349 348 348 345 337 334 333 338 341 341 341 343 343 343 339 335
313 312 313 314 314 313 313 313 312 311 311 311 310 311 311 313 316 318 317 319 318 317 323 341 345 346 347 348 348 348 348 343 337 335 335 340 341 343 342 342 341 337 334 330
313 314 313 314 314 312 313 314 315 315 314 312 310 310 311 315 317 318 319 319 318 317 329 341 346 346 346 347 348 347 346 340 338 338 340 341 344 343 340 339 339 336 333 334
315 315 314 314 314 315 315 313 313 312 312 311 311 312 312 312 316 318 319 319 317 316 332 342 345 345 346 346 346 346 344 340 341 341 342 341 341 339 337 331 334 332 328 329
318 316 313 314 314 313 314 314 311 314 310 310 311 312 314 312 315 318 319 318 318 316 334 343 346 345 344 344 345 345 343 341 342 343 342 341 339 333 334 330 333 332 329 329
312 316 312 314 314 313 313 311 313 313 313 313 310 311 312 315 314 318 320 319 318 318 331 342 344 342 342 342 342 343 342 342 342 342 342 338 330 331 330 332 333 333 333 333
308 309 314 315 315 314 315 314 313 312 313 316 313 311 312 319 317 320 321 319 318 324 331 339 340 340 340 342 341 342 343 343 343 342 340 334 331 330 331 332 332 332 331 324
309 311 317 314 313 313 313 314 313 315 311 315 322 318 317 320 321 321 321 317 323 331 336 336 337 337 337 339 342 342 343 343 341 340 335 331 331 332 332 333 332 329 323 316
310 314 318 315 315 314 316 314 313 314 315 315 317 328 330 331 328 318 320 324 334 335 333 334 333 333 334 338 341 341 341 341 341 336 333 332 332 334 333 330 323 318 316 315
310 313 318 317 315 314 315 314 313 314 315 315 315 315 321 332 325 327 331 334 334 331 331 331 333 335 336 336 339 340 339 339 338 334 333 333 334 331 327 321 317 315 314 313
310 315 316 316 317 316 316 315 316 316 315 319 317 319 320 331 333 335 333 332 331 328 328 329 331 333 334 335 335 336 336 335 334 334 334 333 329 324 320 316 314 313 312 310
309 316 316 318 318 317 315 315 316 317 317 318 318 319 321 332 333 332 330 328 327 325 324 325 328 328 326 329 333 334 334 334 333 331 329 325 321 317 314 313 313 311 309 309
311 316 318 321 319 319 320 319 319 319 317 317 320 322 331 332 331 329 327 326 323 321 321 321 322 323 327 329 331 330 329 328 328 325 319 316 314 313 313 311 310 310 309 309
310 315 317 322 320 321 318 312 314 315 316 317 319 321 319 319 321 323 323 322 321 320 319 320 324 325 324 324 324 323 321 319 317 314 313 313 313 311 311 310 310 310 309 308
307 311 320 323 322 321 317 311 311 309 312 314 318 318 317 317 316 314 317 317 317 317 317 319 322 320 319 320 319 316 314 313 313 313 313 312 311 311 311 310 309 308 308 307
305 308 318 319 319 320 313 307 306 307 316 312 314 320 320 321 318 313 313 316 315 315 316 317 316 315 315 314 313 313 313 313 312 312 311 310 310 310 310 310 309 308 307 307
306 306 312 315 318 317 306 303 307 323 315 309 313 317 317 315 312 310 310 312 313 314 314 313 313 313 313 313 313 312 312 311 310 309 309 309 309 309 310 309 308 307 306 306
305 305 308 310 315 318 303 305 315 309 307 310 309 309 308 307 307 307 309 311 313 313 312 312 312 312 312 312 311 310 309 308 308 308 308 308 308 307 308 308 307 306 306 305
306 302 303 305 307 303 300 301 306 309 306 308 307 306 306 305 304 304 306 309 309 309 310 311 310 310 310 309 309 309 308 308 307 307 307 307 307 306 306 306 306 306 305 304
301 299 303 303 304 300 300 303 307 310 309 307 305 304 304 303 303 303 304 305 307 308 308 309 309 308 308 308 308 307 307 307 307 307 306 306 305 305 305 305 304 304 304 303
300 300 300 303 300 299 301 302 305 307 307 307 306 306 307 305 305 306 303 305 306 307 307 308 307 306 306 305 305 304 304 305 305 305 304 304 303 304 304 303 303 302 302 300
299 300 300 302 298 297 299 301 304 305 305 305 307 307 307 310 308 309 307 305 306 306 305 305 305 305 304 304 303 302 303 303 303 303 302 302 302 302 302 302 301 300 297 296
Wind_Speed
7 9 14 19 17 17 14 16 16 12 10 11 19 16 17 17 26 22 22 21 19 18 19 27 29 35 37 34 37 35 35 31 29 27 27 25 26 23 21 18 16 16 15 16
6 17 20 20 18 19 20 21 19 17 15 14 22 22 20 17 24 21 22 25 22 13 18 28 31 35 37 38 36 36 35 31 31 30 29 27 26 23 19 17 16 14 15 17
15 19 9 12 17 19 21 21 16 20 11 17 18 23 26 24 28 25 26 28 24 19 23 30 32 36 38 39 37 33 32 31 30 30 28 25 22 20 19 17 15 14 13 13
15 14 18 19 22 18 23 18 18 17 9 10 10 13 18 15 26 22 27 27 28 20 26 32 35 35 37 36 36 34 30 30 29 28 26 22 19 19 18 15 15 13 12 11
11 10 7 13 20 18 22 16 15 16 16 14 17 10 19 17 17 23 24 29 29 22 28 33 33 36 33 35 35 34 31 31 31 28 26 23 18 16 12 14 13 13 13 7
25 23 14 20 17 13 4 9 8 10 10 10 25 17 15 17 24 20 24 28 30 22 27 30 31 33 34 32 33 35 34 32 30 28 25 21 19 17 16 14 10 13 13 18
8 14 14 10 11 6 11 9 5 7 7 14 13 16 20 19 22 23 25 27 27 21 25 29 30 29 32 33 35 34 34 30 27 24 21 18 16 15 10 7 7 11 21 19
4 6 10 11 12 8 13 17 6 8 9 12 13 15 18 30 23 14 20 22 19 20 25 27 29 32 34 34 33 34 32 29 25 22 22 18 15 5 9 10 14 18 23 25
4 7 6 12 12 8 3 11 10 4 11 9 15 17 16 25 21 21 18 21 24 24 26 28 28 29 34 33 33 32 31 28 25 23 20 15 14 15 16 13 16 27 24 19
2 8 8 3 8 10 4 6 6 5 5 10 14 22 13 22 25 19 18 21 24 23 27 28 28 30 32 31 30 28 26 26 26 22 20 23 23 19 19 15 20 19 16 13
5 6 2 5 8 9 5 4 4 5 8 6 10 15 19 14 24 22 21 29 29 27 30 29 28 31 33 31 28 26 26 26 26 25 26 29 23 22 19 17 16 15 14 12
7 4 5 7 5 3 12 7 15 9 9 8 7 4 13 16 15 21 19 27 30 30 30 30 34 35 34 30 29 28 29 28 25 25 33 31 22 20 18 15 17 17 16 15
4 3 2 4 5 1 5 14 15 12 4 11 6 2 4 6 10 14 21 33 35 35 36 34 35 35 33 33 33 33 31 28 28 36 36 27 21 18 19 20 20 18 14 12
7 4 5 6 4 1 5 10 14 14 6 6 11 20 22 9 15 19 28 37 38 37 37 39 39 40 40 38 37 35 31 27 28 30 28 26 23 22 22 21 19 16 13 9
3 4 3 12 14 13 11 8 9 12 14 6 9 14 17 11 21 23 33 39 37 35 38 43 46 45 44 40 37 32 31 30 29 29 29 28 26 24 22 19 16 13 10 7
3 4 6 4 5 7 8 10 11 13 10 12 11 17 17 18 27 24 33 37 35 36 39 44 47 46 39 39 40 39 37 35 29 30 29 28 26 23 20 17 14 11 9 8
4 5 4 4 1 5 6 3 9 9 8 11 6 7 18 16 18 19 29 33 38 39 42 45 46 41 43 41 42 40 36 32 31 31 30 27 24 21 18 15 13 11 9 8
6 7 3 3 2 3 4 11 7 10 12 13 8 10 20 20 29 29 29 35 37 40 43 45 50 47 46 43 41 39 36 34 32 31 28 25 21 19 17 14 12 10 10 9
8 4 3 3 3 2 4 9 6 7 9 14 4 20 22 34 41 26 32 36 38 40 42 48 49 46 44 41 40 40 36 33 31 29 26 22 19 18 16 14 13 13 10 9
8 6 3 3 2 4 4 15 20 2 3 12 10 17 20 26 12 4 27 43 42 43 46 49 47 47 45 42 40 39 35 32 29 26 24 20 18 16 15 13 12 12 10 10
7 5 6 6 2 3 9 25 13 5 5 18 9 5 19 12 12 25 36 44 45 47 48 45 44 45 43 40 37 37 33 30 26 23 22 21 19 16 14 13 10 8 7 7
5 7 4 4 3 2 25 15 8 5 20 16 18 24 36 39 35 33 41 47 46 46 42 41 46 44 39 34 32 32 30 27 25 23 21 19 17 15 13 10 9 5 5 7
2 4 5 4 3 8 21 17 25 15 8 9 26 24 39 40 36 32 40 44 42 39 41 41 41 40 36 30 27 28 27 23 22 21 20 18 16 15 13 9 8 6 6 6
2 4 3 6 3 14 20 27 22 10 15 23 28 29 39 42 39 34 37 38 40 37 38 38 38 37 35 28 24 24 24 20 19 19 20 18 15 15 12 9 8 5 5 7
4 9 7 4 5 14 22 26 19 19 23 28 34 32 38 43 41 41 34 38 36 36 35 35 35 33 31 25 23 21 20 18 19 19 19 19 17 14 12 9 7 6 7 8
5 5 4 3 10 6 10 17 16 19 23 28 39 36 40 37 38 33 26 31 33 31 31 31 30 28 26 22 21 20 20 17 19 21 20 18 16 14 11 10 10 9 11 12
Wind_Direction
208 226 237 244 236 249 261 262 262 261 272 285 260 273 272 274 274 268 267 267 263 243 217 202 196 211 203 204 205 203 206 208 210 208 207 206 207 209 212 214 217 217 216 212
243 246 254 256 253 248 252 257 259 263 250 257 264 270 269 261 264 263 266 261 259 242 198 191 201 201 196 197 199 203 206 206 206 206 206 206 202 205 209 212 213 209 211 214
262 265 281 243 248 245 244 249 253 253 262 259 266 270 265 254 258 257 254 253 254 234 199 190 189 196 196 199 197 199 202 204 205 206 207 207 206 203 204 205 207 215 224 229
275 287 249 252 251 244 257 241 239 242 243 254 206 265 258 249 245 240 243 242 242 228 204 190 192 192 195 195 195 199 205 207 208 207 208 207 201 201 203 205 213 217 232 216
251 262 234 234 248 252 255 247 234 237 239 263 249 256 263 242 240 227 229 233 237 227 201 193 186 191 195 194 193 200 207 209 210 204 206 203 201 201 198 204 204 158 143 102
260 257 268 254 258 256 250 215 236 222 233 242 241 224 251 233 220 225 222 222 230 215 199 193 185 191 191 191 195 201 205 205 201 200 203 208 217 208 194 176 175 136 124 112
301 256 239 241 232 227 186 155 179 197 198 240 234 233 235 208 226 224 217 212 216 209 193 185 181 180 187 192 196 197 201 197 195 195 196 200 212 208 219 270 245 156 144 137
287 301 189 185 210 203 199 193 190 212 214 247 219 226 231 232 242 243 241 214 201 192 185 183 182 186 188 187 190 195 195 192 187 189 194 196 214 198 175 170 169 149 140 138
280 249 239 215 214 192 183 208 207 316 247 256 223 232 250 230 228 236 240 197 188 186 178 178 172 178 182 180 187 192 191 187 187 190 194 200 169 166 172 150 156 154 151 139
289 280 252 304 195 186 203 196 170 217 241 233 231 228 232 204 214 221 212 197 184 178 168 163 163 169 170 175 179 185 187 188 189 193 189 163 157 169 162 143 142 152 157 150
206 220 307 173 204 198 187 182 191 250 238 267 275 225 210 219 200 204 201 185 173 168 161 154 149 158 168 172 176 173 177 180 179 169 169 165 166 164 156 140 143 159 166 153
206 271 253 238 143 131 202 200 205 220 226 234 282 204 191 208 195 195 195 168 162 153 150 146 151 161 162 162 163 168 168 167 164 167 167 169 171 164 154 144 144 149 154 148
186 239 279 201 215 166 204 216 220 236 271 283 341 82 342 200 162 166 160 151 146 140 142 141 146 155 157 155 157 160 158 159 162 166 170 170 163 155 154 148 145 146 151 157
202 242 268 274 312 148 226 208 219 226 267 311 264 288 283 169 151 145 149 139 135 132 137 136 146 149 152 152 152 150 152 157 159 166 163 155 147 148 149 148 147 152 156 161
268 269 261 279 262 255 244 203 194 214 228 251 307 287 297 165 144 139 139 129 129 126 127 138 144 147 146 145 144 142 141 145 150 151 149 147 148 150 147 147 148 150 149 135
293 297 307 297 14 206 201 185 199 251 261 239 253 275 267 144 120 129 130 130 128 127 128 135 140 139 136 136 135 136 137 139 144 145 145 146 147 147 148 147 145 139 126 110
299 311 325 14 324 130 130 39 323 315 306 294 241 239 125 113 118 118 124 128 127 126 130 133 134 134 136 134 134 134 137 141 146 145 142 144 145 144 142 140 135 124 113 104
315 321 311 338 343 320 43 22 35 321 296 325 234 123 92 85 83 95 113 118 120 125 129 130 136 137 135 134 135 134 138 141 142 140 140 142 142 140 138 133 127 115 102 99
347 298 301 314 341 318 21 13 351 357 328 345 77 101 101 99 84 57 101 113 118 123 126 129 135 134 135 135 135 135 135 137 137 137 137 138 140 138 135 131 117 97 91 88
1 326 290 356 18 353 358 321 314 282 340 345 323 125 122 118 106 88 109 125 121 123 127 132 135 136 133 133 137 136 135 137 135 137 137 137 138 137 138 131 117 102 84 73
345 348 17 352 353 97 354 322 308 318 5 306 32 58 106 98 100 117 115 118 123 126 128 130 133 133 132 136 139 134 136 135 134 136 136 135 135 133 136 127 116 103 75 58
348 332 354 309 330 22 352 345 3 305 332 99 80 100 101 105 109 110 117 122 128 128 128 130 129 129 129 134 137 131 131 129 132 133 134 132 132 131 129 128 120 96 74 53
316 13 308 334 337 321 322 292 302 284 250 90 106 103 109 107 106 107 113 124 124 124 128 131 128 126 127 132 134 133 126 130 132 134 132 133 132 127 126 127 116 97 70 35
310 9 264 313 52 336 331 360 21 91 131 115 108 106 108 104 105 104 109 119 122 123 125 127 127 124 124 127 130 126 128 133 136 135 133 131 131 125 129 125 113 96 60 43
312 310 324 278 348 339 4 8 42 85 114 113 110 110 110 107 113 116 117 120 121 124 126 129 127 126 122 127 127 126 128 135 138 137 134 131 128 131 130 123 105 81 76 72
337 331 345 327 335 310 311 9 83 90 100 111 123 115 115 120 122 122 121 124 123 125 126 125 124 123 123 127 127 128 129 138 139 136 133 133 133 133 124 109 103 92 85 78